Weather in Lesnoye Nikolskoye

Russia / Ulyanovsk Oblast     54°36′00″N   49°27′11″E
temp.,
°C
wind,
m/s
gust,
m/s
humid.,
%
clouds,
%
prec.,
mm/h
press.,
hPa
HPBL,
m
12 april, mon
mon1201:00+6nne4798100 0.0 1032152
04:00+5nne4898100 0.0 1034165
07:00+6ene51199100 0.1 1034220
10:00+7ne61097100 0.2 1035309
13:00+12e5786100 0.0 1035470
16:00+13e4682100 0.0 1036492
19:00+11ene4892100 0.0 1036282
22:00+8e499620 0.0 1036202
13 april, tue
tue1301:00+7ese499684 0.0 1036183
04:00+7ese379584 0.0 1037122
07:00+7se369354 0.0 1036124
10:00+12se457570 0.0 1036339
13:00+16sse456059 0.0 1035748
16:00+18sse455653 0.0 10341050
19:00+15se347321 0.0 103247
22:00+11sse35757 0.0 103368
14 april, wed
wed1401:00+9sse34795 0.0 103254
04:00+8sse337775 0.0 103229
07:00+7se358067 0.0 103285
10:00+12se467254 0.0 1031411
13:00+16se465857 0.0 1029847
16:00+17se45535 0.0 10271043
19:00+14se34690 0.0 102660
22:00+11se35830 0.0 102666
15 april, thu
thu1501:00+9se34870 0.0 102557
04:00+8se34880 0.0 102442
07:00+8se35860 0.0 102495
10:00+13sse35620 0.0 1023370
13:00+17sse34480 0.0 1022995
16:00+18ssw35410 0.0 10201425
19:00+15wsw22570 0.0 101912
22:00+12ene00623 0.0 101910
16 april, fri
fri1601:00+11ese116573 0.0 101810
04:00+9se00704 0.0 101810
07:00+10n11721 0.0 101810
10:00+15nnw115723 0.0 1018329
13:00+18nnw234720 0.0 10171503
16:00+17n654828 0.0 10171298
19:00+12nne8127157 0.0 1019602
22:00+6nne7138527 0.0 1022557